Tracking 31027 objects as of 19-Jul-2025
HD Live streaming from Space Station
objects crossing your sky now

SL-14 R/B

Track SL-14 R/B now!
10-day predictions


NORAD ID: 17588
Int'l Code: 1987-026G
Perigee: 1,418.2 km
Apogee: 1,477.5 km
Inclination: 82.6 °
Period: 114.7 minutes
Semi major axis: 7818 km
RCS: 5.338 m2 (large)
Launch date: March 13, 1987
Source: Commonwealth of Independent States (former USSR) (CIS)
Launch site: PLESETSK MISSILE AND SPACE COMPLEX (PKMTR)

Note: This is a ROCKET BODY
Your satellite tracking list
KORSAT 7
Track 1 satellite(s)




NASA's NSSDC Master Catalog

Two Line Element Set (TLE):
1 17588U 87026G   25199.52184751  .00000024  00000-0  80682-4 0  9995
2 17588  82.5673 195.7572 0037946 184.6982 291.4228 12.55712993757691
Source of the keplerian elements: AFSPC